| time (UTC) | temp C | wind direction | speed KPH | gust KPH | rain 1hr cm | rain 24hr cm | rain mn cm | humidity % | barometer mb |
| 20260505041612 | 13 | 301 | 8.0 | 9.7 | 0.00 | 0.00 | 0.00 | 40 | 1005.3 |
| 20260505041110 | 13 | 312 | 8.0 | 9.7 | 0.00 | 0.00 | 0.00 | 39 | 1005.2 |
| 20260505040607 | 14 | 325 | 6.4 | 9.7 | 0.00 | 0.00 | 0.00 | 39 | 1005.1 |
| 20260505040104 | 14 | 326 | 9.7 | 11.3 | 0.00 | 0.00 | 0.00 | 38 | 1005.5 |
| 20260505035600 | 14 | 336 | 8.0 | 11.3 | 0.00 | 0.00 | 0.00 | 38 | 1005.1 |
| 20260505035057 | 14 | 303 | 8.0 | 11.3 | 0.00 | 0.00 | 0.00 | 38 | 1005.1 |
| 20260505034553 | 14 | 251 | 4.8 | 4.8 | 0.00 | 0.00 | 0.00 | 37 | 1005.1 |
| 20260505034050 | 14 | 308 | 6.4 | 9.7 | 0.00 | 0.00 | 0.00 | 37 | 1005.2 |
| 20260505033547 | 15 | 310 | 6.4 | 9.7 | 0.00 | 0.00 | 0.00 | 37 | 1005.0 |
| 20260505033045 | 15 | 335 | 6.4 | 6.4 | 0.00 | 0.00 | 0.00 | 36 | 1004.8 |
| 20260505032543 | 15 | 323 | 8.0 | 9.7 | 0.00 | 0.00 | 0.00 | 36 | 1005.0 |
| 20260505032039 | 15 | 301 | 8.0 | 11.3 | 0.00 | 0.00 | 0.00 | 36 | 1004.8 |
| 20260505031537 | 15 | 263 | 9.7 | 12.9 | 0.00 | 0.00 | 0.00 | 36 | 1004.9 |
| 20260505031033 | 15 | 335 | 9.7 | 12.9 | 0.00 | 0.00 | 0.00 | 36 | 1004.7 |
| 20260505030530 | 15 | 8 | 12.9 | 14.5 | 0.00 | 0.00 | 0.00 | 35 | 1005.0 |
| 20260505030026 | 15 | 1 | 14.5 | 17.7 | 0.00 | 0.00 | 0.00 | 35 | 1005.0 |
| 20260505025522 | 16 | 314 | 8.0 | 9.7 | 0.00 | 0.00 | 0.00 | 36 | 1005.0 |
| 20260505025021 | 15 | 310 | 9.7 | 11.3 | 0.00 | 0.00 | 0.00 | 36 | 1004.8 |
| 20260505024518 | 16 | 293 | 8.0 | 12.9 | 0.00 | 0.00 | 0.00 | 35 | 1004.8 |
| 20260505024015 | 16 | 320 | 11.3 | 12.9 | 0.00 | 0.00 | 0.00 | 35 | 1004.8 |
| 20260505023511 | 16 | 305 | 8.0 | 9.7 | 0.00 | 0.00 | 0.00 | 36 | 1004.6 |
| 20260505023009 | 16 | 322 | 4.8 | 4.8 | 0.00 | 0.00 | 0.00 | 36 | 1004.4 |
| 20260505022507 | 16 | 343 | 8.0 | 11.3 | 0.00 | 0.00 | 0.00 | 36 | 1004.3 |
| 20260505022004 | 16 | 336 | 6.4 | 9.7 | 0.00 | 0.00 | 0.00 | 35 | 1003.9 |
| 20260505021500 | 16 | 309 | 9.7 | 16.1 | 0.00 | 0.00 | 0.00 | 35 | 1004.1 |
| 20260505020955 | 17 | 328 | 16.1 | 20.9 | 0.00 | 0.00 | 0.00 | 35 | 1003.8 |
| 20260505020451 | 17 | 309 | 12.9 | 14.5 | 0.00 | 0.00 | 0.00 | 35 | 1003.7 |
| 20260505015948 | 17 | 314 | 12.9 | 14.5 | 0.00 | 0.00 | 0.00 | 36 | 1003.4 |
| 20260505015446 | 17 | 3 | 6.4 | 9.7 | 0.00 | 0.00 | 0.00 | 37 | 1003.3 |
| 20260505014942 | 17 | 305 | 8.0 | 12.9 | 0.00 | 0.00 | 0.00 | 37 | 1003.2 |
| 20260505014439 | 17 | 313 | 16.1 | 20.9 | 0.00 | 0.00 | 0.00 | 36 | 1003.2 |
| 20260505013937 | 17 | 310 | 11.3 | 14.5 | 0.00 | 0.00 | 0.00 | 36 | 1002.9 |
| 20260505013433 | 18 | 343 | 14.5 | 22.5 | 0.00 | 0.00 | 0.00 | 36 | 1002.7 |
| 20260505012931 | 18 | 308 | 9.7 | 11.3 | 0.00 | 0.00 | 0.00 | 37 | 1002.7 |
| 20260505012429 | 18 | 1 | 9.7 | 12.9 | 0.00 | 0.00 | 0.00 | 37 | 1002.6 |
| 20260505011925 | 18 | 342 | 12.9 | 16.1 | 0.00 | 0.00 | 0.00 | 36 | 1002.4 |
| 20260505011422 | 18 | 339 | 16.1 | 16.1 | 0.00 | 0.00 | 0.00 | 36 | 1002.2 |
| 20260505010918 | 18 | 345 | 20.9 | 27.4 | 0.00 | 0.00 | 0.00 | 35 | 1002.1 |
| 20260505010414 | 19 | 316 | 17.7 | 20.9 | 0.00 | 0.00 | 0.00 | 35 | 1001.9 |
| 20260505005910 | 20 | 333 | 12.9 | 16.1 | 0.00 | 0.00 | 0.00 | 35 | 1001.9 |
| 20260505005407 | 20 | 16 | 14.5 | 16.1 | 0.00 | 0.00 | 0.00 | 35 | 1001.7 |
| 20260505004905 | 20 | 213 | 14.5 | 17.7 | 0.00 | 0.00 | 0.00 | 35 | 1001.6 |
| 20260505004401 | 20 | 319 | 19.3 | 25.7 | 0.00 | 0.00 | 0.00 | 34 | 1001.4 |
| 20260505003858 | 21 | 312 | 14.5 | 20.9 | 0.00 | 0.00 | 0.00 | 34 | 1001.1 |
| 20260505003355 | 21 | 321 | 12.9 | 16.1 | 0.00 | 0.00 | 0.00 | 33 | 1001.0 |
| 20260505002852 | 21 | 19 | 8.0 | 11.3 | 0.00 | 0.00 | 0.00 | 33 | 1001.0 |
| 20260505002348 | 21 | 335 | 14.5 | 17.7 | 0.00 | 0.00 | 0.00 | 33 | 1000.6 |
| 20260505001847 | 21 | 313 | 22.5 | 25.7 | 0.00 | 0.00 | 0.00 | 32 | 1000.6 |
| 20260505001344 | 22 | 293 | 14.5 | 17.7 | 0.00 | 0.00 | 0.00 | 32 | 1000.3 |
| 20260505000841 | 22 | 345 | 14.5 | 17.7 | 0.00 | 0.00 | 0.00 | 32 | 1000.3 |
| 20260505000338 | 22 | 300 | 22.5 | 30.6 | 0.00 | 0.00 | 0.00 | 33 | 1000.2 |
| 20260504235835 | 22 | 25 | 22.5 | 25.7 | 0.00 | 0.00 | 0.00 | 33 | 999.9 |
| 20260504235332 | 22 | 280 | 6.4 | 9.7 | 0.00 | 0.00 | 0.00 | 33 | 999.8 |
| 20260504234828 | 23 | 304 | 19.3 | 22.5 | 0.00 | 0.00 | 0.00 | 32 | 999.6 |
| 20260504234326 | 23 | 324 | 19.3 | 24.1 | 0.00 | 0.00 | 0.00 | 32 | 999.6 |
| 20260504233822 | 23 | 319 | 17.7 | 20.9 | 0.00 | 0.00 | 0.00 | 32 | 999.4 |
| 20260504233318 | 23 | 7 | 16.1 | 20.9 | 0.00 | 0.00 | 0.00 | 32 | 999.4 |
| 20260504232815 | 24 | 325 | 19.3 | 24.1 | 0.00 | 0.00 | 0.00 | 32 | 999.5 |
| 20260504232312 | 24 | 331 | 19.3 | 22.5 | 0.00 | 0.00 | 0.00 | 32 | 999.4 |
| 20260504231809 | 25 | 311 | 27.4 | 30.6 | 0.00 | 0.00 | 0.00 | 32 | 999.0 |
| 20260504231306 | 25 | 318 | 22.5 | 27.4 | 0.00 | 0.00 | 0.00 | 32 | 999.3 |
| 20260504230802 | 25 | 29 | 16.1 | 22.5 | 0.00 | 0.00 | 0.00 | 32 | 999.0 |
| 20260504230300 | 25 | 326 | 24.1 | 29.0 | 0.00 | 0.00 | 0.00 | 32 | 999.2 |
| 20260504225758 | 25 | 309 | 19.3 | 24.1 | 0.00 | 0.00 | 0.00 | 33 | 998.9 |
| 20260504225254 | 25 | 320 | 22.5 | 27.4 | 0.00 | 0.00 | 0.00 | 33 | 998.9 |
| 20260504224752 | 26 | 332 | 12.9 | 16.1 | 0.00 | 0.00 | 0.00 | 33 | 999.0 |
| 20260504224249 | 26 | 314 | 8.0 | 11.3 | 0.00 | 0.00 | 0.00 | 34 | 998.9 |
| 20260504223745 | 25 | 322 | 9.7 | 12.9 | 0.00 | 0.00 | 0.00 | 36 | 998.9 |
| 20260504223241 | 25 | 347 | 9.7 | 14.5 | 0.00 | 0.00 | 0.00 | 36 | 998.7 |
| 20260504222738 | 26 | 282 | 11.3 | 16.1 | 0.00 | 0.00 | 0.00 | 35 | 998.6 |
| 20260504222234 | 25 | 241 | 14.5 | 16.1 | 0.00 | 0.00 | 0.00 | 35 | 998.0 |
| 20260504221732 | 26 | 1 | 16.1 | 22.5 | 0.00 | 0.00 | 0.00 | 35 | 998.2 |
| 20260504221229 | 26 | 274 | 9.7 | 11.3 | 0.00 | 0.00 | 0.00 | 33 | 998.1 |
| 20260504220725 | 26 | 248 | 9.7 | 11.3 | 0.00 | 0.00 | 0.00 | 33 | 997.9 |
| 20260504220223 | 26 | 275 | 14.5 | 16.1 | 0.00 | 0.00 | 0.00 | 36 | 998.3 |
| 20260504215720 | 26 | 311 | 12.9 | 16.1 | 0.00 | 0.00 | 0.00 | 33 | 998.5 |
| 20260504215217 | 26 | 333 | 14.5 | 20.9 | 0.00 | 0.00 | 0.00 | 31 | 998.3 |
| 20260504214712 | 26 | 328 | 8.0 | 9.7 | 0.00 | 0.00 | 0.00 | 30 | 998.2 |
| 20260504214209 | 27 | 311 | 9.7 | 14.5 | 0.00 | 0.00 | 0.00 | 30 | 998.3 |
| 20260504213706 | 27 | 259 | 11.3 | 12.9 | 0.00 | 0.00 | 0.00 | 30 | 998.5 |
| 20260504213202 | 27 | 254 | 9.7 | 12.9 | 0.00 | 0.00 | 0.00 | 30 | 998.6 |
| 20260504212659 | 27 | 305 | 14.5 | 20.9 | 0.00 | 0.00 | 0.00 | 30 | 998.4 |
| 20260504212156 | 27 | 271 | 8.0 | 14.5 | 0.00 | 0.00 | 0.00 | 30 | 998.5 |
| 20260504211653 | 27 | 277 | 12.9 | 17.7 | 0.00 | 0.00 | 0.00 | 29 | 998.5 |
| 20260504211149 | 27 | 355 | 12.9 | 14.5 | 0.00 | 0.00 | 0.00 | 30 | 998.6 |
| 20260504210647 | 27 | 261 | 12.9 | 17.7 | 0.00 | 0.00 | 0.00 | 30 | 998.6 |
| 20260504210143 | 27 | 272 | 16.1 | 24.1 | 0.00 | 0.00 | 0.00 | 30 | 998.7 |
| 20260504205641 | 27 | 245 | 16.1 | 25.7 | 0.00 | 0.00 | 0.00 | 30 | 998.7 |
| 20260504205138 | 27 | 263 | 30.6 | 40.2 | 0.00 | 0.00 | 0.00 | 29 | 998.8 |
| 20260504204637 | 27 | 275 | 14.5 | 16.1 | 0.00 | 0.00 | 0.00 | 29 | 998.9 |
| 20260504204135 | 27 | 55 | 9.7 | 12.9 | 0.00 | 0.00 | 0.00 | 29 | 998.8 |
| 20260504203634 | 27 | 350 | 9.7 | 12.9 | 0.00 | 0.00 | 0.00 | 29 | 998.7 |
| 20260504203131 | 28 | 284 | 16.1 | 22.5 | 0.00 | 0.00 | 0.00 | 29 | 998.7 |
| 20260504202631 | 28 | 328 | 8.0 | 11.3 | 0.00 | 0.00 | 0.00 | 29 | 999.0 |
| 20260504202128 | 27 | 289 | 11.3 | 16.1 | 0.00 | 0.00 | 0.00 | 30 | 999.2 |
| 20260504201625 | 27 | 296 | 6.4 | 6.4 | 0.00 | 0.00 | 0.00 | 30 | 999.0 |
| 20260504201123 | 27 | 259 | 9.7 | 14.5 | 0.00 | 0.00 | 0.00 | 30 | 999.2 |
| 20260504200620 | 28 | 205 | 8.0 | 14.5 | 0.00 | 0.00 | 0.00 | 28 | 999.5 |
| 20260504200116 | 28 | 231 | 11.3 | 14.5 | 0.00 | 0.00 | 0.00 | 29 | 999.5 |
| 20260504195612 | 27 | 250 | 9.7 | 12.9 | 0.00 | 0.00 | 0.00 | 29 | 999.6 |
| 20260504195108 | 27 | 320 | 11.3 | 14.5 | 0.00 | 0.00 | 0.00 | 29 | 999.4 |
| 20260504194605 | 27 | 310 | 12.9 | 16.1 | 0.00 | 0.00 | 0.00 | 30 | 999.6 |
| 20260504194101 | 27 | 249 | 22.5 | 27.4 | 0.00 | 0.00 | 0.00 | 30 | 999.6 |
| 20260504193558 | 27 | 276 | 9.7 | 11.3 | 0.00 | 0.00 | 0.00 | 30 | 999.7 |
| 20260504193056 | 26 | 314 | 6.4 | 11.3 | 0.00 | 0.00 | 0.00 | 31 | 999.7 |
| 20260504192554 | 27 | 308 | 8.0 | 14.5 | 0.00 | 0.00 | 0.00 | 30 | 999.8 |
| 20260504192052 | 26 | 209 | 9.7 | 14.5 | 0.00 | 0.00 | 0.00 | 30 | 999.8 |
| 20260504191550 | 26 | 246 | 16.1 | 20.9 | 0.00 | 0.00 | 0.00 | 31 | 999.9 |
| 20260504191046 | 27 | 297 | 19.3 | 22.5 | 0.00 | 0.00 | 0.00 | 30 | 999.7 |
| 20260504190542 | 27 | 284 | 9.7 | 11.3 | 0.00 | 0.00 | 0.00 | 30 | 999.8 |
| 20260504190038 | 27 | 251 | 8.0 | 11.3 | 0.00 | 0.00 | 0.00 | 30 | 999.8 |
| 20260504185536 | 27 | 318 | 17.7 | 27.4 | 0.00 | 0.00 | 0.00 | 30 | 999.7 |
| 20260504185032 | 27 | 278 | 8.0 | 11.3 | 0.00 | 0.00 | 0.00 | 30 | 999.9 |
| 20260504184527 | 27 | 276 | 9.7 | 17.7 | 0.00 | 0.00 | 0.00 | 30 | 1000.0 |
| 20260504184023 | 27 | 156 | 9.7 | 12.9 | 0.00 | 0.00 | 0.00 | 29 | 1000.0 |
| 20260504183520 | 27 | 324 | 8.0 | 11.3 | 0.00 | 0.00 | 0.00 | 29 | 999.9 |
| 20260504183019 | 27 | 301 | 19.3 | 27.4 | 0.00 | 0.00 | 0.00 | 29 | 999.9 |
| 20260504182515 | 27 | 315 | 12.9 | 22.5 | 0.00 | 0.00 | 0.00 | 29 | 1000.1 |
| 20260504182012 | 27 | 261 | 9.7 | 16.1 | 0.00 | 0.00 | 0.00 | 29 | 1000.1 |
| 20260504181509 | 27 | 335 | 9.7 | 11.3 | 0.00 | 0.00 | 0.00 | 29 | 1000.1 |
| 20260504181008 | 26 | 261 | 16.1 | 24.1 | 0.00 | 0.00 | 0.00 | 29 | 1000.1 |
| 20260504180506 | 27 | 64 | 11.3 | 14.5 | 0.00 | 0.00 | 0.00 | 29 | 1000.1 |
| 20260504180004 | 26 | 246 | 8.0 | 14.5 | 0.00 | 0.00 | 0.00 | 29 | 1000.0 |
| 20260504175501 | 26 | 304 | 19.3 | 25.7 | 0.00 | 0.00 | 0.00 | 28 | 1000.2 |
| 20260504174958 | 26 | 54 | 8.0 | 12.9 | 0.00 | 0.00 | 0.00 | 30 | 1000.2 |
| 20260504174456 | 26 | 327 | 19.3 | 27.4 | 0.00 | 0.00 | 0.00 | 31 | 999.9 |
| 20260504173953 | 26 | 211 | 17.7 | 22.5 | 0.00 | 0.00 | 0.00 | 29 | 1000.2 |
| 20260504173449 | 26 | 291 | 17.7 | 24.1 | 0.00 | 0.00 | 0.00 | 30 | 1000.3 |
| 20260504172947 | 26 | 270 | 8.0 | 11.3 | 0.00 | 0.00 | 0.00 | 30 | 1000.3 |
| 20260504172443 | 26 | 251 | 24.1 | 27.4 | 0.00 | 0.00 | 0.00 | 31 | 1000.6 |
| 20260504171940 | 26 | 295 | 11.3 | 14.5 | 0.00 | 0.00 | 0.00 | 32 | 1000.5 |
| 20260504171437 | 26 | 264 | 12.9 | 14.5 | 0.00 | 0.00 | 0.00 | 33 | 1000.5 |
| 20260504170934 | 25 | 259 | 11.3 | 16.1 | 0.00 | 0.00 | 0.00 | 33 | 1000.5 |
| 20260504170430 | 25 | 239 | 14.5 | 20.9 | 0.00 | 0.00 | 0.00 | 33 | 1000.5 |
| 20260504160349 | 23 | 204 | 14.5 | 20.9 | 0.00 | 0.00 | 0.00 | 33 | 1001.4 |
| 20260504150814 | 21 | 282 | 8.0 | 11.3 | 0.00 | 0.00 | 0.00 | 37 | 1002.1 |
| 20260504150310 | 21 | 223 | 8.0 | 14.5 | 0.00 | 0.00 | 0.00 | 37 | 1002.5 |
| 20260504141240 | 18 | 210 | 8.0 | 11.3 | 0.00 | 0.00 | 0.00 | 46 | 1003.0 |
| 20260504140737 | 17 | 244 | 9.7 | 11.3 | 0.00 | 0.00 | 0.00 | 48 | 1002.8 |
| 20260504140232 | 17 | 236 | 6.4 | 6.4 | 0.00 | 0.00 | 0.00 | 49 | 1003.0 |
| 20260504130701 | 13 | 219 | 8.0 | 9.7 | 0.00 | 0.00 | 0.00 | 60 | 1003.4 |
| 20260504130157 | 13 | 241 | 6.4 | 9.7 | 0.00 | 0.00 | 0.00 | 59 | 1003.7 |
| 20260504120121 | 10 | 219 | 8.0 | 9.7 | 0.00 | 0.00 | 0.00 | 65 | 1003.7 |
| 20260504110549 | 8 | 285 | 1.6 | 1.6 | 0.00 | 0.00 | 0.00 | 65 | 1004.2 |
| 20260504100510 | 6 | 329 | 0.0 | 0.0 | 0.00 | 0.00 | 0.00 | 80 | 1004.7 |
| 20260504081903 | 9 | 263 | 3.2 | 4.8 | 0.00 | 0.00 | 0.00 | 63 | 1005.3 |
| 20260504081400 | 8 | 307 | 1.6 | 1.6 | 0.00 | 0.00 | 0.00 | 68 | 1005.3 |
| 20260504080856 | 8 | 288 | 1.6 | 3.2 | 0.00 | 0.00 | 0.00 | 65 | 1005.4 |
| 20260504080353 | 8 | 314 | 0.0 | 1.6 | 0.00 | 0.00 | 0.00 | 65 | 1005.4 |
| 20260504070320 | 8 | 328 | 0.0 | 1.6 | 0.00 | 0.00 | 0.00 | 70 | 1005.9 |
| 20260504060241 | 11 | 309 | 0.0 | 0.0 | 0.00 | 0.00 | 0.00 | 58 | 1006.8 |
| 20260504050709 | 12 | 323 | 0.0 | 1.6 | 0.00 | 0.00 | 0.00 | 57 | 1007.3 |
| 20260504050206 | 11 | 308 | 0.0 | 1.6 | 0.00 | 0.00 | 0.00 | 56 | 1007.3 |
| 20260504045703 | 12 | 329 | 0.0 | 0.0 | 0.00 | 0.03 | 0.03 | 57 | 1007.1 |